When you browse on this site, cookies collect data to enhance your experience and personalize the content and advertising you see.
Visit our Privacy Policy to learn more. By continuing to use the site, you agree to this use of cookies and data.
  • In Germany
  • List of Countries
  • For 7 days
  • Water Temperature
  • Satellite Maps
  • Weather Map
  • Weather Widgets
  • user-avatar
    Login

    Hourly Weather Malanje

    Today, 25 May, Saturday

    Time Temperature Precipitation Wind Pressure Humidity
    00:00 +23°C° 0 mm 1 mps 666 mmHg 52%
    01:00 +23°C° 0 mm 1 mps 666 mmHg 54%
    02:00 +22°C° 0 mm 1 mps 666 mmHg 55%
    03:00 +21°C° 0 mm 1 mps 665 mmHg 55%
    04:00 +20°C° 0 mm 1 mps 665 mmHg 56%
    05:00 +19°C° 0 mm 2 mps 665 mmHg 56%
    06:00 +19°C° 0 mm 2 mps 666 mmHg 56%
    07:00 +19°C° 0 mm 2 mps 666 mmHg 57%
    08:00 +21°C° 0 mm 3 mps 666 mmHg 49%
    09:00 +25°C° 0 mm 4 mps 667 mmHg 40%
    10:00 +28°C° 0 mm 4 mps 668 mmHg 32%
    11:00 +29°C° 0 mm 4 mps 667 mmHg 30%
    12:00 +32°C° 0 mm 4 mps 667 mmHg 27%
    13:00 +33°C° 0 mm 4 mps 667 mmHg 25%
    14:00 +33°C° 0 mm 3 mps 666 mmHg 27%
    15:00 +31°C° 0 mm 3 mps 665 mmHg 28%
    16:00 +31°C° 0 mm 2 mps 665 mmHg 30%
    17:00 +29°C° 0 mm 2 mps 665 mmHg 34%
    18:00 +26°C° 0 mm 2 mps 665 mmHg 38%
    19:00 +24°C° 0 mm 1 mps 665 mmHg 42%
    20:00 +23°C° 0 mm 1 mps 665 mmHg 42%
    21:00 +23°C° 0 mm 1 mps 665 mmHg 41%
    22:00 +22°C° 0 mm 1 mps 666 mmHg 41%
    23:00 +20°C° 0 mm 2 mps 665 mmHg 43%

    Tomorrow, 26 May, Sunday

    Time Temperature Precipitation Wind Pressure Humidity
    00:00 +20°C° 0 mm 2 mps 665 mmHg 44%
    01:00 +19°C° 0 mm 2 mps 665 mmHg 46%
    02:00 +19°C° 0 mm 2 mps 665 mmHg 47%
    03:00 +18°C° 0 mm 2 mps 665 mmHg 49%
    04:00 +18°C° 0 mm 2 mps 664 mmHg 51%
    05:00 +18°C° 0 mm 3 mps 665 mmHg 51%
    06:00 +18°C° 0 mm 3 mps 665 mmHg 51%
    07:00 +18°C° 0 mm 3 mps 666 mmHg 52%
    08:00 +20°C° 0 mm 4 mps 666 mmHg 47%
    09:00 +23°C° 0 mm 4 mps 667 mmHg 41%
    10:00 +26°C° 0 mm 4 mps 667 mmHg 36%
    11:00 +28°C° 0 mm 4 mps 667 mmHg 34%
    12:00 +29°C° 0 mm 3 mps 667 mmHg 31%
    13:00 +31°C° 0 mm 3 mps 666 mmHg 28%
    14:00 +30°C° 0 mm 3 mps 666 mmHg 29%
    15:00 +30°C° 0 mm 2 mps 665 mmHg 31%
    16:00 +30°C° 0 mm 2 mps 665 mmHg 32%
    17:00 +28°C° 0 mm 1 mps 665 mmHg 35%
    18:00 +26°C° 0 mm 1 mps 665 mmHg 39%
    19:00 +23°C° 0 mm 1 mps 664 mmHg 42%
    20:00 +23°C° 0 mm 1 mps 665 mmHg 42%
    21:00 +22°C° 0 mm 1 mps 665 mmHg 42%
    22:00 +21°C° 0 mm 1 mps 665 mmHg 42%
    23:00 +21°C° 0 mm 1 mps 665 mmHg 43%

    Day after tomorrow, 27 May, Monday

    Time Temperature Precipitation Wind Pressure Humidity
    00:00 +20°C° 0 mm 1 mps 665 mmHg 45%
    01:00 +19°C° 0 mm 1 mps 664 mmHg 46%
    02:00 +19°C° 0 mm 1 mps 664 mmHg 48%
    03:00 +18°C° 0 mm 1 mps 664 mmHg 49%
    04:00 +17°C° 0 mm 2 mps 663 mmHg 51%
    05:00 +17°C° 0 mm 2 mps 664 mmHg 52%
    06:00 +17°C° 0 mm 2 mps 664 mmHg 53%
    07:00 +17°C° 0 mm 3 mps 665 mmHg 54%
    08:00 +20°C° 0 mm 3 mps 666 mmHg 49%
    09:00 +24°C° 0 mm 3 mps 666 mmHg 44%
    10:00 +27°C° 0 mm 3 mps 667 mmHg 39%
    11:00 +29°C° 0 mm 3 mps 667 mmHg 35%
    12:00 +31°C° 0 mm 2 mps 666 mmHg 31%
    13:00 +32°C° 0 mm 2 mps 666 mmHg 27%
    14:00 +32°C° 0 mm 1 mps 665 mmHg 28%
    15:00 +32°C° 0 mm 1 mps 665 mmHg 29%
    16:00 +29°C° 0 mm 0 mps 664 mmHg 29%
    17:00 +27°C° 0 mm 0 mps 664 mmHg 33%
    18:00 +24°C° 0 mm 0 mps 664 mmHg 37%
    19:00 +22°C° 0 mm 0 mps 664 mmHg 41%
    20:00 +22°C° 0 mm 0 mps 664 mmHg 42%
    21:00 +23°C° 0 mm 1 mps 665 mmHg 44%
    22:00 +23°C° 0 mm 1 mps 665 mmHg 45%
    23:00 +22°C° 0 mm 1 mps 665 mmHg 47%

    28 May, Tuesday

    Time Temperature Precipitation Wind Pressure Humidity
    00:00 +21°C° 0 mm 1 mps 665 mmHg 50%
    01:00 +21°C° 0 mm 1 mps 664 mmHg 52%
    02:00 +20°C° 0 mm 1 mps 664 mmHg 54%
    03:00 +18°C° 0 mm 0 mps 664 mmHg 56%
    04:00 +17°C° 0 mm 0 mps 664 mmHg 58%
    05:00 +17°C° 0 mm 0 mps 664 mmHg 59%
    06:00 +18°C° 0 mm 0 mps 665 mmHg 59%
    07:00 +18°C° 0 mm 0 mps 665 mmHg 60%
    08:00 +23°C° 0 mm 1 mps 666 mmHg 52%
    09:00 +26°C° 0 mm 1 mps 667 mmHg 44%
    10:00 +29°C° 0 mm 1 mps 668 mmHg 37%
    11:00 +31°C° 0 mm 1 mps 667 mmHg 35%
    12:00 +32°C° 0 mm 1 mps 667 mmHg 33%
    13:00 +32°C° 0 mm 0 mps 666 mmHg 30%
    14:00 +31°C° 0 mm 0 mps 666 mmHg 31%
    15:00 +30°C° 0 mm 0 mps 665 mmHg 32%
    16:00 +29°C° 0 mm 0 mps 664 mmHg 33%
    17:00 +27°C° 0 mm 0 mps 665 mmHg 37%
    18:00 +27°C° 0 mm 1 mps 665 mmHg 42%
    19:00 +25°C° 0 mm 1 mps 665 mmHg 46%
    20:00 +25°C° 0 mm 1 mps 665 mmHg 48%
    21:00 +24°C° 0 mm 1 mps 665 mmHg 51%
    22:00 +23°C° 0 mm 1 mps 666 mmHg 53%
    23:00 +23°C° 0 mm 1 mps 665 mmHg 58%

    29 May, Wednesday

    Time Temperature Precipitation Wind Pressure Humidity
    00:00 +22°C° 0 mm 1 mps 665 mmHg 62%
    01:00 +21°C° 0 mm 1 mps 665 mmHg 66%
    02:00 +21°C° 0 mm 1 mps 664 mmHg 71%
    03:00 +20°C° 0 mm 1 mps 664 mmHg 75%
    04:00 +18°C° 0 mm 2 mps 664 mmHg 79%
    05:00 +19°C° 0 mm 1 mps 664 mmHg 80%
    06:00 +19°C° 0 mm 1 mps 665 mmHg 82%
    07:00 +19°C° 0 mm 1 mps 665 mmHg 84%
    08:00 +23°C° 0 mm 1 mps 666 mmHg 72%
    09:00 +26°C° 0 mm 1 mps 667 mmHg 60%
    10:00 +29°C° 0 mm 1 mps 668 mmHg 49%
    11:00 +31°C° 0 mm 1 mps 667 mmHg 43%
    12:00 +33°C° 0 mm 1 mps 667 mmHg 37%
    13:00 +33°C° 0 mm 0 mps 667 mmHg 32%
    14:00 +31°C° 0 mm 0 mps 666 mmHg 33%
    15:00 +30°C° 0 mm 0 mps 665 mmHg 33%
    16:00 +29°C° 0 mm 0 mps 665 mmHg 34%
    17:00 +29°C° 0 mm 1 mps 665 mmHg 38%
    18:00 +28°C° 0 mm 1 mps 665 mmHg 42%
    19:00 +26°C° 0 mm 1 mps 665 mmHg 45%
    20:00 +25°C° 0 mm 1 mps 665 mmHg 51%
    21:00 +23°C° 0 mm 1 mps 665 mmHg 56%
    22:00 +22°C° 0 mm 1 mps 665 mmHg 62%
    23:00 +22°C° 0 mm 1 mps 665 mmHg 64%

    30 May, Thursday

    Time Temperature Precipitation Wind Pressure Humidity
    00:00 +21°C° 0 mm 1 mps 665 mmHg 66%
    01:00 +21°C° 0 mm 1 mps 664 mmHg 69%
    02:00 +20°C° 0 mm 1 mps 664 mmHg 70%
    03:00 +20°C° 0 mm 1 mps 664 mmHg 71%
    04:00 +20°C° 0 mm 1 mps 664 mmHg 72%
    05:00 +20°C° 0 mm 1 mps 665 mmHg 73%
    06:00 +20°C° 0 mm 1 mps 665 mmHg 73%
    07:00 +18°C° 0 mm 0 mps 665 mmHg 74%
    08:00 +22°C° 0 mm 0 mps 666 mmHg 63%
    09:00 +27°C° 0 mm 1 mps 667 mmHg 53%
    10:00 +30°C° 0 mm 1 mps 668 mmHg 42%
    11:00 +32°C° 0 mm 1 mps 667 mmHg 38%
    12:00 +32°C° 0 mm 0 mps 667 mmHg 33%
    13:00 +33°C° 0 mm 0 mps 667 mmHg 29%
    14:00 +32°C° 0 mm 0 mps 666 mmHg 31%
    15:00 +30°C° 0 mm 0 mps 665 mmHg 33%
    16:00 +29°C° 0 mm 0 mps 664 mmHg 35%
    17:00 +27°C° 0 mm 0 mps 665 mmHg 38%
    18:00 +25°C° 0 mm 0 mps 665 mmHg 42%
    19:00 +23°C° 0 mm 0 mps 665 mmHg 45%
    20:00 +24°C° 0 mm 1 mps 665 mmHg 49%
    21:00 +23°C° 0 mm 1 mps 665 mmHg 53%
    22:00 +22°C° 0 mm 1 mps 665 mmHg 57%
    23:00 +21°C° 0 mm 1 mps 665 mmHg 60%
    Show more